Location: Fontevrault
(47.1823°N, 0.0493°E)
Time: 14:37:27
(UTC+00:00)

Aureole 1 Rocket - Pass Details

Date: 16 June 2021
Orbit: 377 x 1372 km, 73.9° (Epoch: 04 August)

Event Time Altitude Azimuth Distance (km) Brightness Sun altitude
Rises 21:27:13 0° 338° (NNW) 3,223 8.5 -11.4°
Reaches altitude 10° 21:29:21 10° 339° (NNW) 2,428 7.5 -11.6°
Maximum altitude 21:35:02 83° 67° (ENE) 1,006 4.1 -12.2°
Enters shadow 21:41:00 16° 156° (SSE) 2,610 5.6 -12.7°
